Regional Weather Roundup
Issued by NWS

Home | Current Version | Previous Version | Text Only | Print | Product List | Glossary On
Versions: 1 2 3 4 5 6 7 8 9 10 11 12 13 14 15 16 17 18 19 20 21 22 23 24 25 26 27 28 29 30 31 32 33 34 35 36 37 38 39 40 41 42 43 44 45 46 47 48 49 50
000
ASUS44 KFWD 101615
RWRTX
NORTH TEXAS HOURLY WEATHER ROUNDUP
NATIONAL WEATHER SERVICE FORT WORTH TX
1100 AM CDT THU JUL 10 2014

NOTE: "FAIR" INDICATES FEW OR NO CLOUDS BELOW 12,000 FEET WITH NO
SIGNIFICANT WEATHER AND/OR OBSTRUCTIONS TO VISIBILITY.

TXZ118-119-101700-
DALLAS/FORT WORTH METROPLEX

CITY           SKY/WX    TMP DP  RH WIND       PRES   REMARKS
DFW AIRPORT    PTSUNNY   88  66  48 S13       30.05R HX  90
DALLAS LOVE    PTSUNNY   87  67  51 SW7       30.06R HX  90
FTW MEACHAM    SUNNY     89  67  47 SW8       30.04S HX  92
DAL-EXECUTIVE  MOSUNNY   88  68  51 VRB5      30.06S HX  91
FTW-ALLIANCE   MOSUNNY   88  67  49 SW9       30.04R HX  91
FTW-NAS-JRB    MOSUNNY   91  64  40 SW14      30.08S HX  92
FTW-SPINKS     SUNNY     88  66  48 S8        30.07S HX  90
ARLINGTON      SUNNY     88  65  46 S10       30.06R HX  90
GRAND PRAIRIE  SUNNY     86  64  48 MISG      30.07S
ADDISON        PTSUNNY   86  66  51 S7        30.06R
MESQUITE       SUNNY     88  66  48 MISG      30.07R HX  90
LANCASTER      MOSUNNY   87  65  47 SW7       30.07S
$$

TXZ091>094-102>105-117-120-121-131>134-101700-
NORTH CENTRAL TEXAS

CITY           SKY/WX    TMP DP  RH WIND       PRES   REMARKS
SHRMAN/DENISON MOSUNNY   89  67  49 S10       30.05S HX  92
GAINESVILLE    SUNNY     89  66  45 S9        30.05F HX  91
BOWIE          SUNNY     87  67  52 S8        30.05S HX  90
BRIDGEPORT     SUNNY     87  64  45 SW6       30.06S
DECATUR        SUNNY     88  64  45 SW8       30.06S
DENTON         SUNNY     88  68  51 S10G16    30.04S HX  91
MCKINNEY       MOSUNNY   88  66  48 SW9       30.05S HX  90
GREENVILLE     MOSUNNY   88  64  45 S9        30.07S
ROCKWALL       MOSUNNY   86  70  59 S12       30.06S HX  91
TERRELL        MOSUNNY   89  68  49 S13       30.08R HX  93
WAXAHACHIE     SUNNY     86  64  46 S13       30.09R
CLEBURNE       SUNNY     86  72  62 S12       30.09R HX  92
GRANBURY       SUNNY     89  66  45 S9        30.07S HX  91
$$

TXZ083>090-098>101-113>116-127>130-139>142-154-155-101700-
WESTERN NORTH TEXAS

CITY           SKY/WX    TMP DP  RH WIND       PRES   REMARKS
WICHITA FALLS  MOSUNNY   89  66  46 SW14      30.00S HX  91
WF-KICKAPOO    SUNNY     89  61  39 SW13G20   30.03S
VERNON         SUNNY     91  59  34 SW13      30.02R HX  90
ABILENE        SUNNY     86  61  42 S13       30.09R
ABILENE-DYESS  SUNNY     87  60  40 S15       30.08R
BRECKENRIDGE   SUNNY     90  60  35 SW13G18   30.06S
MINERAL WELLS  SUNNY     86  67  52 S7        30.05R
STEPHENVILLE   SUNNY     86  62  43 SW10G16   30.11S
COMANCHE       SUNNY     86  63  45 S7        30.10R
BROWNWOOD      SUNNY     84  64  51 S6        30.10S
COLEMAN        SUNNY     85  61  44 SW12      30.11R
BRADY          SUNNY     86  63  45 SE9       30.11R
$$

TXZ143>147-156>162-174-175-101700-
CENTRAL TEXAS

CITY           SKY/WX    TMP DP  RH WIND       PRES   REMARKS
WACO           SUNNY     87  66  49 S10       30.08S
WACO-TSTC      SUNNY     86  66  51 S10G18    30.08S
WACO-MCGREGOR  SUNNY     88  64  45 S14G20    30.09S
HILLSBORO      MOSUNNY   86  66  50 S12       30.09R
CORSICANA      SUNNY     89  69  51 SW13      30.10R HX  93
MEXIA          SUNNY     85  71  63 SW12      30.09R HX  90
HEARNE         SUNNY     89  75  64 S8        30.10S HX  99
CAMERON        SUNNY     85  69  59 S12       30.10R
TEMPLE         SUNNY     86  66  51 S13G21    30.10R
KILLEEN        MOSUNNY   88  66  48 SE13G20   30.09S HX  90
KILLEEN-SKYLRK SUNNY     88  64  45 SE10      30.09S
FORT HOOD      SUNNY     88  67  49 S8        30.09S HX  91
GATESVILLE     SUNNY     86  64  48 S8        30.11S
HAMILTON       SUNNY     86  65  50 S12G20    30.11S
LAMPASAS       SUNNY     84  66  54 S8        30.09S
$$

TXZ095>097-106>112-122>126-135>138-148>153-164>167-101700-
EAST TEXAS

CITY           SKY/WX    TMP DP  RH WIND       PRES   REMARKS
PARIS          MOSUNNY   84  70  61 S7        30.07R
SULPHUR SPRNGS MOSUNNY   88  67  49 S9        30.09S HX  91
CLARKSVILLE    MOSUNNY   86  70  58 SW3       30.07R HX  91
MOUNT PLEASANT MOSUNNY   85  71  61 SW6       30.09S HX  90
GILMER         SUNNY     84  72  65 S7        30.10S
MINEOLA        SUNNY     86  70  58 SW9       30.09S HX  90
TYLER          SUNNY     86  69  56 SW9       30.09R HX  90
LONGVIEW       SUNNY     87  70  56 SW8       30.08S HX  92
MARSHALL         N/A     89  76  67 S5        30.11S HX 100
ATHENS         SUNNY     84  70  61 S9        30.08S
PALESTINE      SUNNY     82  67  60 S8        30.12R
JACKSONVILLE   SUNNY     85  71  61 S8        30.13S HX  90
HENDERSON      SUNNY     86  69  56 S6        30.11R HX  90
NACOGDOCHES    SUNNY     84  73  70 SW9       30.11S HX  91
LUFKIN         MOSUNNY   90  74  59 SW9       30.11R HX  99
$$

SUPPLEMENTAL OBSERVATIONS (CENTRAL)

CITY           SKY/WX    TMP DP  RH WIND       PRES   REMARKS
LAKE TEXOMA      N/A     88  64  45 S7          N/A
CADDO GRASSLND   N/A     88  70  55 S5          N/A  HX  92
PAT MAYSE LAKE   N/A     84  68  58 S1          N/A
ATHENS           N/A     88  68  51 SW7G15      N/A  HX  91
LAKE LIMESTONE   N/A     86  77  74 S13         N/A  HX  97
MCGREGOR         N/A     88  66  48 S10         N/A  HX  90
$$

SUPPLEMENTAL OBSERVATIONS (WEST)

CITY           SKY/WX    TMP DP  RH WIND       PRES   REMARKS
MILLERS CREEK    N/A     90  66  45 SW14        N/A  HX  92
LBJ GRASSLAND    N/A     90  66  45 SW6         N/A  HX  92
COMANCHE         N/A     88  66  48 S10G20      N/A  HX  90
HAMBY            N/A    N/A N/A N/A SW16        N/A
$$

SUPPLEMENTAL OBSERVATIONS (EAST)

CITY           SKY/WX    TMP DP  RH WIND       PRES   REMARKS
CLARKSVILLE      N/A     88  72  58 S3          N/A  HX  94
CADDO LAKE       N/A     88  72  58 E2          N/A  HX  94
GILMER           N/A     88  68  51 SW8         N/A  HX  91
HENDERSON        N/A     88  70  55 SW10        N/A  HX  92
LUFKIN           N/A     88  82  84 MISG        N/A  HX 108
N SABINE NF      N/A     90  75  62 MISG        N/A  HX 100
S SABINE NF      N/A     90  73  58 S5          N/A  HX  98
$$

SUPPLEMENTAL OBSERVATIONS ARE A COLLECTION OF AUTOMATED INSTRUMENTS
THAT ARE MAINTAINED BY A VARIETY OF FEDERAL AND STATE AGENCIES.
CERTAIN ELEMENTS...SUCH AS HUMIDITY VALUES AND SUSTAINED WIND
SPEEDS...MAY BE APPROXIMATED.



USA.gov is the U.S. government's official web portal to all federal, state and local government web resources and services.